Weather History for KMBG - November, 2014

Change the Weather History Date:

Saturday, November 8, 2014

  Actual Average Record
Temperature  
Mean Temperature 39 °F 36 °F  
Max Temperature 50 °F 47 °F 76 °F (1999)
Min Temperature 28 °F 25 °F 4 °F (1945)
Degree Days  
Heating Degree Days 26 29  
Month to date heating degree days 166 214  
Since 1 July heating degree days 804 988  
Cooling Degree Days 0 0  
Month to date cooling degree days 0 0  
Year to date cooling degree days 471 644  
Moisture  
Dew Point 28 °F    
Average Humidity 64    
Maximum Humidity 82    
Minimum Humidity 46    
Precipitation  
Precipitation 0.00 in 0.02 in 1.14 in (1977)
Month to date precipitation 0.03 0.24  
Year to date precipitation 20.62 17.19  
Snow  
Snow 0.00 in - - ()
Month to date snowfall 0.0  
Since 1 July snowfall 0.0  
Snow Depth 0.00 in    
Sea Level Pressure  
Sea Level Pressure 30.05 in    
Wind  
Wind Speed 9 mph (West)    
Max Wind Speed 23 mph    
Max Gust Speed 28 mph    
Visibility 10 miles    
Events      
T = Trace of Precipitation, MM = Missing Value Source: NWS Daily Summary

Daily Weather History Graph

Daily Weather History Graph

Search for Another Location

Airport or City:

Trip Planner

Search our weather history database for the weather conditions in past years. The results will help you decide how hot, cold, wet, or windy it might be!

Date:

Astronomy

Nov. 08, 2014 Rise Set
Actual Time 7:31 AM CST 5:19 PM CST
Civil Twilight 6:59 AM CST 5:50 PM CST
Nautical Twilight 6:24 AM CST 6:26 PM CST
Astronomical Twilight 5:49 AM CST 7:00 PM CST
Moon 6:59 PM CST (11/8) 9:11 AM CST (11/8)
Length of Visible Light 10h 51m
Length of Day
9h 47m
Waning Gibbous, 96% of the Moon is Illuminated
Nov 8
Waning Gibbous
Nov 14
Last Quarter
Nov 22
New
Nov 29
First Quarter
Dec 6
Full

Hourly Weather History & Observations

Time (CST) Temp. Windchill Dew Point Humidity Pressure Visibility Wind Dir Wind Speed Gust Speed Precip Events Conditions
12:52 AM 37.0 °F 27.4 °F 26.1 °F 65% 30.20 in 10.0 mi NNW 17.3 mph 24.2 mph N/A   Clear
1:52 AM 37.0 °F 27.0 °F 26.1 °F 65% 30.20 in 10.0 mi NW 18.4 mph 21.9 mph N/A   Overcast
2:52 AM 37.0 °F 28.9 °F 25.0 °F 62% 30.22 in 10.0 mi NW 12.7 mph - N/A   Overcast
3:52 AM 35.1 °F 26.4 °F 25.0 °F 67% 30.22 in 10.0 mi NW 12.7 mph - N/A   Overcast
4:52 AM 33.1 °F 25.5 °F 24.1 °F 70% 30.21 in 10.0 mi NW 9.2 mph - N/A   Mostly Cloudy
5:52 AM 30.0 °F 20.0 °F 23.0 °F 75% 30.23 in 10.0 mi WNW 12.7 mph - N/A   Clear
6:52 AM 28.9 °F 19.2 °F 23.0 °F 78% 30.24 in 10.0 mi WNW 11.5 mph - N/A   Clear
7:52 AM 28.0 °F 18.6 °F 23.0 °F 81% 30.24 in 10.0 mi NW 10.4 mph - N/A   Clear
8:52 AM 30.9 °F 22.8 °F 24.1 °F 76% 30.23 in 10.0 mi WNW 9.2 mph - N/A   Clear
9:52 AM 36.0 °F 29.0 °F 25.0 °F 64% 30.19 in 10.0 mi WNW 9.2 mph - N/A   Clear
10:52 AM 39.9 °F 34.5 °F 25.0 °F 55% 30.15 in 10.0 mi WSW 8.1 mph - N/A   Mostly Cloudy
11:52 AM 42.1 °F 37.1 °F 26.1 °F 53% 30.10 in 10.0 mi WSW 8.1 mph - N/A   Overcast
12:52 PM 43.0 °F 38.2 °F 27.0 °F 53% 30.06 in 10.0 mi WSW 8.1 mph - N/A   Overcast
1:52 PM 44.1 °F 40.1 °F 28.0 °F 53% 30.01 in 10.0 mi SSW 6.9 mph - N/A   Overcast
2:52 PM 46.0 °F 42.5 °F 28.9 °F 51% 29.94 in 10.0 mi South 6.9 mph - N/A   Overcast
3:52 PM 50.0 °F - 30.0 °F 46% 29.91 in 10.0 mi SSW 10.4 mph - N/A   Clear
4:52 PM 48.9 °F - 32.0 °F 52% 29.90 in 10.0 mi South 6.9 mph - N/A   Partly Cloudy
5:52 PM 44.1 °F 39.0 °F 30.9 °F 60% 29.87 in 10.0 mi SSE 9.2 mph - N/A   Clear
6:52 PM 39.9 °F 35.8 °F 30.9 °F 70% 29.84 in 10.0 mi SSE 5.8 mph - N/A   Clear
7:52 PM 45.0 °F 42.6 °F 32.0 °F 60% 29.83 in 10.0 mi Variable 4.6 mph - N/A   Clear
8:52 PM 35.1 °F 31.0 °F 28.0 °F 76% 29.85 in 10.0 mi NNW 4.6 mph - N/A   Clear
9:52 PM 39.9 °F 34.5 °F 34.0 °F 79% 29.83 in 10.0 mi NNW 8.1 mph - N/A   Clear
10:52 PM 37.0 °F - 32.0 °F 82% 29.81 in 10.0 mi Calm Calm - N/A   Clear
11:52 PM 37.9 °F 31.5 °F 32.0 °F 79% 29.81 in 10.0 mi WNW 9.2 mph - N/A   Clear